AIC129 VABB-EGLL

Flight info

Callsign AIC129
Flight time N/A
Altitude 34000
Route RAXET2A BISET P751 LEGEN N563 REXOD L883 UMILA N569 TOKRA DCT MEDPO DCT BOSOB/N0490F360 DCT ITRUX Y511 PMA Z712 WEJ L677 CVO/N0477F380 L617 TANSA UL613 YNN UL611 TUMBO DCT RODON DCT VAKSU DCT ROTAR DCT SAFFA DCT ELMUR DCT RIPUS DCT DITON DCT HOC DCT LUL DCT RLP DCT ROTSI DCT KOTUN DCT NINAL DCT ABNUR DCT DIMAL DCT ALESO
Aircraft B77L/H-SDE1E2E3FGHIJ2J3J4J5M1RWXY/LB1D1

Departure

Time 2026-05-05 19:44
Airport Chhatrapati Shivaji Maharaj International Airport (VABB)

Arrival

Time N/A
Airport London Heathrow Airport (EGLL)
Time Latitude Longitude Altitude Speed Heading
2026-05-05 18:59 19.09518 72.87124 48 ft 0 kts 140°
2026-05-05 19:30 19.09526 72.87117 54 ft 2 kts 141°
2026-05-05 19:30 19.09539 72.87106 47 ft 2 kts 143°
2026-05-05 19:30 19.09552 72.87096 47 ft 2 kts 147°
2026-05-05 19:30 19.09567 72.87087 47 ft 2 kts 155°
2026-05-05 19:31 19.09582 72.87081 49 ft 2 kts 176°
2026-05-05 19:31 19.09598 72.87084 46 ft 2 kts 221°
2026-05-05 19:31 19.09603 72.87089 47 ft 0 kts 225°
2026-05-05 19:33 19.09565 72.87049 50 ft 5 kts 225°
2026-05-05 19:33 19.09543 72.87024 51 ft 5 kts 227°
2026-05-05 19:34 19.09521 72.86999 48 ft 5 kts 227°
2026-05-05 19:34 19.09499 72.86973 47 ft 5 kts 227°
2026-05-05 19:34 19.09478 72.86948 49 ft 5 kts 229°
2026-05-05 19:35 19.09436 72.86897 51 ft 5 kts 228°
2026-05-05 19:35 19.09409 72.86877 48 ft 5 kts 204°
2026-05-05 19:35 19.09378 72.86881 51 ft 5 kts 161°
2026-05-05 19:35 19.09350 72.86899 52 ft 5 kts 140°
2026-05-05 19:36 19.09324 72.86922 50 ft 5 kts 139°
2026-05-05 19:36 19.09301 72.86947 47 ft 5 kts 135°
2026-05-05 19:36 19.09277 72.86972 48 ft 5 kts 135°
2026-05-05 19:36 19.09254 72.86996 52 ft 5 kts 134°
2026-05-05 19:37 19.09238 72.87026 54 ft 5 kts 107°
2026-05-05 19:37 19.09235 72.87062 54 ft 5 kts 93°
2026-05-05 19:37 19.09234 72.87097 54 ft 5 kts 90°
2026-05-05 19:37 19.09235 72.87132 54 ft 5 kts 89°
2026-05-05 19:38 19.09235 72.87168 54 ft 5 kts 89°
2026-05-05 19:38 19.09236 72.87203 50 ft 5 kts 88°
2026-05-05 19:38 19.09230 72.87238 50 ft 5 kts 117°
2026-05-05 19:38 19.09202 72.87257 53 ft 5 kts 162°
2026-05-05 19:39 19.09168 72.87262 50 ft 5 kts 175°
2026-05-05 19:39 19.09133 72.87264 48 ft 5 kts 178°
2026-05-05 19:39 19.09099 72.87265 48 ft 5 kts 179°
2026-05-05 19:39 19.09066 72.87273 52 ft 5 kts 149°
2026-05-05 19:40 19.09053 72.87306 49 ft 5 kts 98°
2026-05-05 19:40 19.09052 72.87343 49 ft 5 kts 91°
2026-05-05 19:40 19.09051 72.87381 49 ft 5 kts 90°
2026-05-05 19:40 19.09052 72.87435 49 ft 12 kts 89°
2026-05-05 19:41 19.09053 72.87558 48 ft 18 kts 88°
2026-05-05 19:41 19.09056 72.87691 48 ft 18 kts 89°
2026-05-05 19:41 19.09058 72.87819 48 ft 17 kts 89°
2026-05-05 19:41 19.09060 72.87938 53 ft 16 kts 89°
2026-05-05 19:42 19.09054 72.88028 48 ft 10 kts 117°
2026-05-05 19:42 19.09011 72.88049 49 ft 7 kts 170°
2026-05-05 19:42 19.08958 72.88052 50 ft 8 kts 183°
2026-05-05 19:42 19.08903 72.88037 51 ft 8 kts 213°
2026-05-05 19:43 19.08887 72.87924 52 ft 27 kts 268°
2026-05-05 19:43 19.08881 72.87532 53 ft 91 kts 269°
2026-05-05 19:43 19.08869 72.86590 48 ft 164 kts 269°
2026-05-05 19:43 19.08854 72.85185 201 ft 207 kts 269°
2026-05-05 19:44 19.08834 72.83645 776 ft 214 kts 269°
2026-05-05 19:44 19.08799 72.82037 1503 ft 219 kts 269°
2026-05-05 19:44 19.08764 72.80460 2397 ft 214 kts 269°
2026-05-05 19:44 19.08747 72.78807 2669 ft 237 kts 269°
2026-05-05 19:45 19.08725 72.77007 3114 ft 252 kts 269°
2026-05-05 19:45 19.08697 72.75122 3717 ft 261 kts 269°
2026-05-05 19:45 19.08836 72.73194 4316 ft 267 kts 278°
2026-05-05 19:45 19.09086 72.71219 5016 ft 272 kts 277°
2026-05-05 19:46 19.09315 72.69235 5773 ft 273 kts 276°
2026-05-05 19:46 19.09538 72.67254 6488 ft 276 kts 276°
2026-05-05 19:46 19.09739 72.65192 7147 ft 281 kts 274°
2026-05-05 19:46 19.09898 72.63141 7749 ft 287 kts 274°
2026-05-05 19:47 19.10054 72.61014 8372 ft 292 kts 274°
2026-05-05 19:47 19.10183 72.59239 8900 ft 296 kts 274°
2026-05-05 19:47 19.10344 72.57055 9543 ft 301 kts 274°
2026-05-05 19:47 19.10508 72.54832 10142 ft 306 kts 274°
2026-05-05 19:48 19.10681 72.52523 10382 ft 326 kts 274°
2026-05-05 19:48 19.10866 72.50053 10554 ft 348 kts 274°
2026-05-05 19:48 19.11064 72.47425 10711 ft 370 kts 275°
2026-05-05 19:48 19.11274 72.44648 11043 ft 385 kts 275°
2026-05-05 19:49 19.11490 72.41788 11604 ft 394 kts 275°
2026-05-05 19:49 19.11638 72.39833 12069 ft 396 kts 275°
2026-05-05 19:49 19.11929 72.35989 13129 ft 399 kts 275°
2026-05-05 19:49 19.12149 72.33066 13865 ft 401 kts 275°
2026-05-05 19:50 19.12371 72.30113 14510 ft 404 kts 275°
2026-05-05 19:50 19.12594 72.27144 15200 ft 406 kts 275°
2026-05-05 19:50 19.12817 72.24158 15873 ft 408 kts 275°
2026-05-05 19:50 19.13042 72.21154 16509 ft 411 kts 275°
2026-05-05 19:51 19.13268 72.18127 17134 ft 415 kts 275°
2026-05-05 19:51 19.13495 72.15072 17753 ft 418 kts 275°
2026-05-05 19:51 19.13724 72.11997 18320 ft 421 kts 276°
2026-05-05 19:51 19.13953 72.08899 18849 ft 424 kts 276°
2026-05-05 19:52 19.14184 72.05778 19352 ft 427 kts 276°
2026-05-05 19:52 19.14416 72.02631 19852 ft 430 kts 276°
2026-05-05 19:52 19.14649 71.99473 20343 ft 433 kts 276°
2026-05-05 19:52 19.14883 71.96284 20822 ft 436 kts 276°
2026-05-05 19:53 19.15117 71.93081 21297 ft 439 kts 276°
2026-05-05 19:53 19.15354 71.89845 21756 ft 442 kts 276°
2026-05-05 19:53 19.15591 71.86593 22202 ft 445 kts 277°
2026-05-05 19:53 19.15829 71.83324 22637 ft 448 kts 277°
2026-05-05 19:54 19.16068 71.80027 23060 ft 451 kts 277°
2026-05-05 19:54 19.16308 71.76710 23472 ft 453 kts 277°
2026-05-05 19:54 19.16548 71.73381 23812 ft 456 kts 277°
2026-05-05 19:54 19.16858 71.70039 24165 ft 456 kts 281°
2026-05-05 19:55 19.17495 71.66801 24504 ft 456 kts 286°
2026-05-05 19:55 19.18279 71.63541 24855 ft 458 kts 286°
2026-05-05 19:55 19.19071 71.60268 25188 ft 460 kts 286°
2026-05-05 19:55 19.19863 71.56976 25528 ft 462 kts 285°
2026-05-05 19:56 19.20394 71.54749 25757 ft 464 kts 285°
2026-05-05 19:56 19.21432 71.50351 26181 ft 466 kts 285°
2026-05-05 19:56 19.22212 71.47017 26506 ft 469 kts 285°
2026-05-05 19:56 19.22739 71.44753 26716 ft 470 kts 285°
2026-05-05 19:57 19.23776 71.40287 27119 ft 473 kts 285°
2026-05-05 19:57 19.24306 71.38000 27326 ft 474 kts 284°
2026-05-05 19:57 19.25092 71.34602 27637 ft 476 kts 284°
2026-05-05 19:57 19.26136 71.30087 28024 ft 479 kts 284°
2026-05-05 19:58 19.26672 71.27765 28215 ft 480 kts 284°
2026-05-05 19:58 19.27466 71.24331 28503 ft 482 kts 284°
2026-05-05 19:58 19.28264 71.20871 28782 ft 484 kts 284°
2026-05-05 19:58 19.29064 71.17404 29043 ft 486 kts 284°
2026-05-05 19:59 19.29867 71.13921 29281 ft 488 kts 284°
2026-05-05 19:59 19.30660 71.10475 29536 ft 490 kts 284°
2026-05-05 19:59 19.31467 71.06966 29790 ft 491 kts 284°
2026-05-05 19:59 19.32274 71.03455 30071 ft 491 kts 284°
2026-05-05 20:00 19.33079 70.99948 30390 ft 489 kts 284°
2026-05-05 20:00 19.33881 70.96450 30735 ft 488 kts 284°
2026-05-05 20:00 19.34681 70.92963 31037 ft 487 kts 284°
2026-05-05 20:00 19.35477 70.89485 31337 ft 487 kts 284°
2026-05-05 20:01 19.36273 70.86003 31648 ft 486 kts 284°
2026-05-05 20:01 19.37068 70.82527 31963 ft 485 kts 284°
2026-05-05 20:01 19.37859 70.79064 32284 ft 484 kts 284°
2026-05-05 20:01 19.38648 70.75602 32597 ft 483 kts 284°
2026-05-05 20:02 19.39435 70.72151 32896 ft 482 kts 284°
2026-05-05 20:02 19.40221 70.68696 33205 ft 482 kts 284°
2026-05-05 20:02 19.41004 70.65254 33501 ft 481 kts 284°
2026-05-05 20:02 19.41787 70.61808 33771 ft 481 kts 284°
2026-05-05 20:03 19.42573 70.58348 33813 ft 484 kts 284°
2026-05-05 20:03 19.44143 70.51422 33833 ft 481 kts 284°
2026-05-05 20:04 19.45699 70.44549 33847 ft 478 kts 284°
2026-05-05 20:04 19.47243 70.37712 33844 ft 477 kts 284°
2026-05-05 20:05 19.48782 70.30890 33847 ft 477 kts 283°
2026-05-05 20:05 19.50322 70.24048 33846 ft 477 kts 283°
2026-05-05 20:06 19.51861 70.17197 33847 ft 478 kts 283°
2026-05-05 20:06 19.53402 70.10323 33849 ft 480 kts 283°
2026-05-05 20:07 19.54942 70.03441 33850 ft 480 kts 283°
2026-05-05 20:07 19.56484 69.96538 33848 ft 481 kts 283°
2026-05-05 20:08 19.58024 69.89632 33849 ft 481 kts 283°
2026-05-05 20:08 19.59560 69.82729 33852 ft 481 kts 283°
2026-05-05 20:09 19.61085 69.75862 33847 ft 481 kts 283°
2026-05-05 20:09 19.62616 69.68958 33849 ft 481 kts 283°
2026-05-05 20:10 19.64142 69.62058 33849 ft 480 kts 283°
2026-05-05 20:10 19.65666 69.55159 33850 ft 480 kts 283°
2026-05-05 20:11 19.67185 69.48270 33849 ft 480 kts 283°
2026-05-05 20:11 19.68700 69.41381 33850 ft 479 kts 283°
2026-05-05 20:12 19.70212 69.34494 33848 ft 479 kts 283°
2026-05-05 20:12 19.71723 69.27600 33853 ft 479 kts 283°
2026-05-05 20:13 19.73231 69.20708 33853 ft 479 kts 283°
2026-05-05 20:13 19.74736 69.13810 33850 ft 480 kts 283°
2026-05-05 20:14 19.76239 69.06916 33854 ft 480 kts 283°
2026-05-05 20:14 19.77740 69.00012 33852 ft 480 kts 283°
2026-05-05 20:15 19.79240 68.93099 33848 ft 480 kts 283°
2026-05-05 20:15 19.80738 68.86183 33851 ft 481 kts 283°
2026-05-05 20:16 19.82233 68.79268 33851 ft 481 kts 283°
2026-05-05 20:16 19.83726 68.72349 33852 ft 481 kts 283°
2026-05-05 20:17 19.85217 68.65422 33849 ft 481 kts 283°
2026-05-05 20:17 19.86705 68.58501 33854 ft 481 kts 283°
2026-05-05 20:18 19.88181 68.51617 33851 ft 481 kts 283°
2026-05-05 20:18 19.89664 68.44691 33851 ft 481 kts 283°
2026-05-05 20:19 19.91144 68.37764 33856 ft 481 kts 283°
2026-05-05 20:19 19.92621 68.30834 33853 ft 481 kts 283°
2026-05-05 20:20 19.94096 68.23902 33857 ft 481 kts 283°
2026-05-05 20:20 19.95567 68.16971 33854 ft 481 kts 283°
2026-05-05 20:21 19.97038 68.10033 33855 ft 481 kts 283°
2026-05-05 20:21 19.98504 68.03099 33856 ft 481 kts 283°
2026-05-05 20:22 19.99969 67.96158 33855 ft 481 kts 283°
2026-05-05 20:22 20.01432 67.89216 33855 ft 481 kts 283°
2026-05-05 20:23 20.02892 67.82268 33854 ft 481 kts 283°
2026-05-05 20:23 20.04349 67.75320 33855 ft 482 kts 283°
2026-05-05 20:24 20.05806 67.68364 33855 ft 482 kts 283°
2026-05-05 20:24 20.07258 67.61411 33857 ft 482 kts 283°
2026-05-05 20:25 20.08711 67.54442 33853 ft 482 kts 283°
2026-05-05 20:25 20.10159 67.47484 33854 ft 482 kts 283°
2026-05-05 20:26 20.11606 67.40511 33854 ft 482 kts 283°
2026-05-05 20:26 20.13049 67.33546 33855 ft 482 kts 283°
2026-05-05 20:27 20.14491 67.26572 33853 ft 482 kts 283°
2026-05-05 20:27 20.15929 67.19602 33854 ft 482 kts 283°
2026-05-05 20:28 20.17355 67.12677 33853 ft 482 kts 283°
2026-05-05 20:28 20.18786 67.05715 33855 ft 482 kts 283°
2026-05-05 20:29 20.20215 66.98745 33855 ft 482 kts 283°
2026-05-05 20:29 20.21640 66.91781 33855 ft 481 kts 283°
2026-05-05 20:30 20.23063 66.84809 33857 ft 481 kts 283°
2026-05-05 20:30 20.24481 66.77848 33852 ft 481 kts 283°
2026-05-05 20:31 20.25899 66.70874 33855 ft 482 kts 283°
2026-05-05 20:31 20.27313 66.63907 33857 ft 482 kts 283°
2026-05-05 20:32 20.28726 66.56926 33853 ft 482 kts 283°
2026-05-05 20:32 20.30136 66.49946 33855 ft 482 kts 283°
2026-05-05 20:33 20.31544 66.42963 33853 ft 482 kts 283°
2026-05-05 20:33 20.32949 66.35973 33854 ft 482 kts 283°
2026-05-05 20:34 20.34352 66.28987 33854 ft 482 kts 283°
2026-05-05 20:34 20.35752 66.21994 33854 ft 482 kts 283°
2026-05-05 20:35 20.37150 66.15001 33853 ft 482 kts 283°
2026-05-05 20:35 20.38543 66.08011 33858 ft 482 kts 283°
2026-05-05 20:36 20.39936 66.01010 33858 ft 482 kts 283°
2026-05-05 20:36 20.41325 65.94016 33850 ft 482 kts 283°
2026-05-05 20:37 20.42709 65.87028 33852 ft 482 kts 283°
2026-05-05 20:37 20.44091 65.80038 33852 ft 482 kts 283°
2026-05-05 20:38 20.45471 65.73042 33849 ft 482 kts 283°
2026-05-05 20:38 20.46848 65.66044 33852 ft 482 kts 283°
2026-05-05 20:39 20.48213 65.59094 33851 ft 482 kts 283°
2026-05-05 20:39 20.49584 65.52094 33854 ft 482 kts 283°
2026-05-05 20:40 20.50953 65.45094 33849 ft 483 kts 283°
2026-05-05 20:40 20.52321 65.38080 33848 ft 483 kts 283°
2026-05-05 20:41 20.53686 65.31067 33848 ft 483 kts 283°
2026-05-05 20:41 20.55048 65.24050 33849 ft 483 kts 283°
2026-05-05 20:42 20.56408 65.17034 33849 ft 483 kts 283°
2026-05-05 20:42 20.57767 65.10002 33847 ft 484 kts 283°
2026-05-05 20:43 20.58894 65.04160 33848 ft 484 kts 283°
2026-05-05 20:43 20.60247 64.97131 33845 ft 484 kts 283°
2026-05-05 20:44 20.61599 64.90090 33847 ft 484 kts 283°
2026-05-05 20:44 20.63176 64.81862 33845 ft 484 kts 283°
2026-05-05 20:45 20.64965 64.72499 33850 ft 484 kts 283°
2026-05-05 20:45 20.66307 64.65454 33844 ft 484 kts 283°
2026-05-05 20:46 20.67645 64.58417 33843 ft 484 kts 283°
2026-05-05 20:46 20.68981 64.51368 33845 ft 484 kts 283°
2026-05-05 20:47 20.70315 64.44323 33843 ft 484 kts 283°
2026-05-05 20:47 20.71645 64.37273 33843 ft 484 kts 282°
2026-05-05 20:48 20.72972 64.30227 33844 ft 484 kts 282°
2026-05-05 20:48 20.74297 64.23179 33842 ft 484 kts 282°
2026-05-05 20:49 20.75617 64.16133 33844 ft 484 kts 282°
2026-05-05 20:49 20.76936 64.09081 33844 ft 484 kts 282°
2026-05-05 20:50 20.78252 64.02030 33839 ft 484 kts 282°
2026-05-05 20:50 20.79564 63.94981 33838 ft 484 kts 282°
2026-05-05 20:51 20.80874 63.87927 33841 ft 484 kts 282°
2026-05-05 20:51 20.82171 63.80925 33844 ft 484 kts 282°
2026-05-05 20:52 20.83474 63.73872 33842 ft 484 kts 282°
2026-05-05 20:52 20.84775 63.66817 33842 ft 484 kts 282°
2026-05-05 20:53 20.86073 63.59758 33838 ft 484 kts 282°
2026-05-05 20:53 20.87367 63.52707 33843 ft 484 kts 282°
2026-05-05 20:54 20.88660 63.45646 33841 ft 484 kts 282°
2026-05-05 20:54 20.89949 63.38586 33837 ft 484 kts 282°
2026-05-05 20:55 20.91235 63.31523 33841 ft 484 kts 282°
2026-05-05 20:55 20.92519 63.24460 33838 ft 484 kts 282°
2026-05-05 20:56 20.93799 63.17396 33837 ft 484 kts 282°
2026-05-05 20:56 20.95076 63.10337 33836 ft 483 kts 282°
2026-05-05 20:57 20.96349 63.03278 33839 ft 483 kts 282°
2026-05-05 20:57 20.97621 62.96211 33838 ft 483 kts 282°
2026-05-05 20:58 20.98888 62.89155 33839 ft 483 kts 282°
2026-05-05 20:58 21.00151 62.82100 33837 ft 483 kts 282°
2026-05-05 20:59 21.01403 62.75090 33836 ft 483 kts 282°
2026-05-05 20:59 21.02660 62.68035 33833 ft 483 kts 282°
2026-05-05 21:00 21.03914 62.60978 33836 ft 482 kts 282°
2026-05-05 21:00 21.05173 62.53879 33833 ft 482 kts 282°
2026-05-05 21:01 21.06413 62.46871 33832 ft 482 kts 282°
2026-05-05 21:01 21.07657 62.39818 33835 ft 482 kts 282°
2026-05-05 21:02 21.08899 62.32759 33839 ft 482 kts 282°
2026-05-05 21:02 21.10137 62.25708 33836 ft 482 kts 282°
2026-05-05 21:03 21.11372 62.18653 33833 ft 482 kts 282°
2026-05-05 21:03 21.12605 62.11590 33830 ft 482 kts 282°
2026-05-05 21:04 21.13834 62.04535 33834 ft 482 kts 282°
2026-05-05 21:04 21.15061 61.97478 33836 ft 482 kts 282°
2026-05-05 21:05 21.16284 61.90418 33835 ft 482 kts 282°
2026-05-05 21:05 21.17504 61.83360 33830 ft 482 kts 282°
2026-05-05 21:06 21.18722 61.76296 33835 ft 482 kts 281°
2026-05-05 21:06 21.19938 61.69227 33832 ft 482 kts 281°
2026-05-05 21:07 21.20930 61.62119 33833 ft 483 kts 274°
2026-05-05 21:07 21.21132 61.54919 33829 ft 484 kts 272°
2026-05-05 21:08 21.21284 61.47704 33829 ft 484 kts 272°
2026-05-05 21:08 21.21460 61.40493 33830 ft 484 kts 273°
2026-05-05 21:09 21.21652 61.33331 33836 ft 484 kts 273°
2026-05-05 21:09 21.21846 61.26119 33828 ft 484 kts 273°
2026-05-05 21:10 21.22037 61.18910 33828 ft 484 kts 273°
2026-05-05 21:10 21.22223 61.11706 33830 ft 484 kts 273°
2026-05-05 21:11 21.22406 61.04499 33835 ft 484 kts 272°
2026-05-05 21:11 21.22585 60.97294 33826 ft 484 kts 272°
2026-05-05 21:12 21.22762 60.90090 33833 ft 484 kts 272°
2026-05-05 21:12 21.22936 60.82882 33831 ft 483 kts 272°
2026-05-05 21:13 21.23106 60.75678 33831 ft 483 kts 272°
2026-05-05 21:13 21.23274 60.68479 33831 ft 483 kts 272°
2026-05-05 21:14 21.23438 60.61271 33826 ft 483 kts 272°
2026-05-05 21:14 21.23599 60.54069 33831 ft 483 kts 272°
2026-05-05 21:15 21.23758 60.46867 33832 ft 483 kts 272°
2026-05-05 21:15 21.23913 60.39659 33832 ft 483 kts 272°
2026-05-05 21:16 21.24064 60.32503 33832 ft 483 kts 272°
2026-05-05 21:16 21.24214 60.25303 33827 ft 483 kts 272°
2026-05-05 21:17 21.24360 60.18103 33832 ft 483 kts 272°
2026-05-05 21:17 21.24501 60.10905 33829 ft 483 kts 272°
2026-05-05 21:18 21.24635 60.03706 33831 ft 483 kts 272°
2026-05-05 21:18 21.24766 59.96508 33834 ft 483 kts 272°
2026-05-05 21:19 21.24895 59.89303 33836 ft 483 kts 272°
2026-05-05 21:19 21.25021 59.82106 33830 ft 483 kts 272°
2026-05-05 21:20 21.25144 59.74913 33837 ft 483 kts 272°
2026-05-05 21:20 21.25264 59.67711 33832 ft 483 kts 272°
2026-05-05 21:21 21.25381 59.60519 33833 ft 483 kts 272°
2026-05-05 21:21 21.25495 59.53318 33833 ft 483 kts 272°
2026-05-05 21:22 21.25606 59.46131 33831 ft 483 kts 272°
2026-05-05 21:22 21.25715 59.38930 33835 ft 482 kts 272°
2026-05-05 21:23 21.25821 59.31746 33833 ft 482 kts 271°
2026-05-05 21:23 21.25924 59.24555 33837 ft 482 kts 271°
2026-05-05 21:24 21.26023 59.17373 33832 ft 482 kts 271°
2026-05-05 21:24 21.26120 59.10181 33842 ft 482 kts 271°
2026-05-05 21:25 21.26213 59.03043 33836 ft 482 kts 271°
2026-05-05 21:25 21.26304 58.95851 33844 ft 482 kts 271°
2026-05-05 21:26 21.26392 58.88660 33842 ft 482 kts 271°
2026-05-05 21:26 21.26607 58.81481 33844 ft 482 kts 277°
2026-05-05 21:27 21.27838 58.74440 33845 ft 481 kts 287°
2026-05-05 21:27 21.29826 58.67596 33848 ft 481 kts 288°
2026-05-05 21:28 21.31840 58.60751 33849 ft 481 kts 287°
2026-05-05 21:28 21.33822 58.53906 33847 ft 481 kts 287°
2026-05-05 21:29 21.35785 58.47044 33850 ft 481 kts 287°
2026-05-05 21:29 21.37742 58.40181 33852 ft 481 kts 287°
2026-05-05 21:30 21.39697 58.33321 33847 ft 481 kts 287°
2026-05-05 21:30 21.41647 58.26465 33848 ft 480 kts 287°
2026-05-05 21:31 21.43267 58.20764 33852 ft 480 kts 287°
2026-05-05 21:31 21.45541 58.12749 33852 ft 480 kts 287°
2026-05-05 21:32 21.47154 58.07052 33854 ft 480 kts 287°
2026-05-05 21:32 21.49404 57.99089 33850 ft 479 kts 287°
2026-05-05 21:33 21.51024 57.93349 33852 ft 479 kts 287°
2026-05-05 21:33 21.52952 57.86507 33851 ft 479 kts 287°
2026-05-05 21:34 21.54879 57.79653 33849 ft 479 kts 287°
2026-05-05 21:34 21.56789 57.72851 33850 ft 479 kts 286°
2026-05-05 21:35 21.58721 57.65960 33854 ft 479 kts 286°
2026-05-05 21:35 21.60621 57.59154 33853 ft 479 kts 286°
2026-05-05 21:36 21.62529 57.52299 33853 ft 479 kts 286°
2026-05-05 21:36 21.64438 57.45433 33845 ft 479 kts 286°
2026-05-05 21:37 21.66341 57.38576 33845 ft 479 kts 286°
2026-05-05 21:37 21.68243 57.31711 33844 ft 479 kts 286°
2026-05-05 21:38 21.70142 57.24847 33841 ft 479 kts 286°
2026-05-05 21:38 21.72037 57.17982 33839 ft 479 kts 286°
2026-05-05 21:39 21.73931 57.11107 33834 ft 479 kts 286°
2026-05-05 21:39 21.75819 57.04236 33836 ft 479 kts 286°
2026-05-05 21:40 21.77701 56.97372 33833 ft 479 kts 286°
2026-05-05 21:40 21.79582 56.90498 33828 ft 479 kts 286°
2026-05-05 21:41 21.81459 56.83628 33826 ft 478 kts 285°
2026-05-05 21:41 21.83333 56.76759 33821 ft 478 kts 285°
2026-05-05 21:42 21.85203 56.69891 33820 ft 478 kts 285°
2026-05-05 21:42 21.87072 56.63025 33821 ft 478 kts 285°
2026-05-05 21:43 21.88939 56.56158 33813 ft 478 kts 285°
2026-05-05 21:43 21.90800 56.49294 33812 ft 477 kts 285°
2026-05-05 21:44 21.92657 56.42432 33806 ft 477 kts 285°
2026-05-05 21:44 21.94513 56.35569 33804 ft 477 kts 285°
2026-05-05 21:45 21.96372 56.28705 33801 ft 477 kts 285°
2026-05-05 21:45 21.98235 56.21840 33798 ft 477 kts 285°
2026-05-05 21:46 22.00092 56.14979 33795 ft 477 kts 285°
2026-05-05 21:46 22.01948 56.08111 33796 ft 477 kts 285°
2026-05-05 21:47 22.03782 56.01283 33788 ft 477 kts 285°
2026-05-05 21:47 22.05617 55.94399 33789 ft 477 kts 285°
2026-05-05 21:48 22.07449 55.87520 33785 ft 477 kts 285°
2026-05-05 21:48 22.09279 55.80641 33789 ft 477 kts 285°
2026-05-05 21:49 22.11105 55.73765 33781 ft 477 kts 285°
2026-05-05 21:49 22.12925 55.66896 33780 ft 477 kts 285°
2026-05-05 21:50 22.14744 55.60023 33780 ft 476 kts 285°
2026-05-05 21:50 22.16065 55.53035 33771 ft 475 kts 275°
2026-05-05 21:51 22.16622 55.45940 33775 ft 475 kts 274°
2026-05-05 21:51 22.17165 55.38838 33769 ft 475 kts 274°
2026-05-05 21:52 22.18018 55.28176 33769 ft 476 kts 274°
2026-05-05 21:53 22.18597 55.21063 33770 ft 476 kts 274°
2026-05-05 21:53 22.19174 55.13942 33767 ft 476 kts 274°
2026-05-05 21:54 22.19746 55.06817 33768 ft 477 kts 274°
2026-05-05 21:54 22.20316 54.99695 33769 ft 477 kts 274°
2026-05-05 21:55 22.20882 54.92569 33762 ft 477 kts 274°
2026-05-05 21:55 22.21445 54.85443 33763 ft 476 kts 274°
2026-05-05 21:56 22.22000 54.78371 33768 ft 476 kts 274°
2026-05-05 21:56 22.22560 54.71208 33765 ft 476 kts 274°
2026-05-05 21:57 22.23112 54.64098 33766 ft 475 kts 274°
2026-05-05 21:57 22.23657 54.57041 33760 ft 475 kts 274°
2026-05-05 21:58 22.24203 54.49939 33772 ft 475 kts 274°
2026-05-05 21:58 22.24745 54.42839 33771 ft 474 kts 274°
2026-05-05 21:59 22.25283 54.35749 33767 ft 474 kts 274°
2026-05-05 21:59 22.25819 54.28651 33771 ft 474 kts 274°
2026-05-05 22:00 22.26351 54.21553 33766 ft 474 kts 274°
2026-05-05 22:00 22.26881 54.14450 33770 ft 475 kts 273°
2026-05-05 22:01 22.27408 54.07351 33767 ft 475 kts 273°
2026-05-05 22:01 22.27931 54.00247 33767 ft 475 kts 273°
2026-05-05 22:02 22.28453 53.93130 33768 ft 475 kts 273°
2026-05-05 22:02 22.28971 53.86017 33769 ft 475 kts 273°
2026-05-05 22:03 22.29486 53.78901 33765 ft 476 kts 273°
2026-05-05 22:03 22.29998 53.71781 33763 ft 476 kts 273°
2026-05-05 22:04 22.30507 53.64662 33764 ft 475 kts 273°
2026-05-05 22:04 22.31013 53.57547 33768 ft 475 kts 273°
2026-05-05 22:05 22.31516 53.50429 33765 ft 475 kts 273°
2026-05-05 22:05 22.32015 53.43317 33765 ft 475 kts 273°
2026-05-05 22:06 22.32511 53.36205 33762 ft 475 kts 273°
2026-05-05 22:06 22.33003 53.29099 33769 ft 475 kts 273°
2026-05-05 22:07 22.33490 53.22041 33769 ft 474 kts 273°
2026-05-05 22:07 22.33975 53.14940 33757 ft 474 kts 273°
2026-05-05 22:08 22.34459 53.07835 33761 ft 474 kts 272°
2026-05-05 22:08 22.34938 53.00738 33759 ft 474 kts 272°
2026-05-05 22:09 22.35414 52.93641 33760 ft 474 kts 272°
2026-05-05 22:09 22.35887 52.86548 33764 ft 473 kts 272°
2026-05-05 22:10 22.36357 52.79453 33760 ft 473 kts 272°
2026-05-05 22:10 22.36823 52.72364 33762 ft 473 kts 272°
2026-05-05 22:11 22.37286 52.65276 33765 ft 473 kts 272°
2026-05-05 22:11 22.37747 52.58176 33872 ft 475 kts 272°
2026-05-05 22:11 22.37976 52.54638 34176 ft 474 kts 272°
2026-05-05 22:12 22.38204 52.51100 34525 ft 471 kts 272°
2026-05-05 22:12 22.38430 52.47574 34879 ft 469 kts 272°
2026-05-05 22:12 22.38654 52.44073 35209 ft 467 kts 272°
2026-05-05 22:12 22.38877 52.40577 35484 ft 466 kts 272°
2026-05-05 22:13 22.39099 52.37073 35676 ft 467 kts 272°
2026-05-05 22:13 22.39542 52.30051 35751 ft 468 kts 272°
2026-05-05 22:14 22.39981 52.23056 35757 ft 466 kts 272°
2026-05-05 22:14 22.40416 52.16075 35763 ft 465 kts 272°
2026-05-05 22:15 22.40885 52.09117 35768 ft 464 kts 273°
2026-05-05 22:15 22.41464 52.02177 35767 ft 464 kts 274°
2026-05-05 22:16 22.42056 51.95239 35762 ft 463 kts 273°
2026-05-05 22:16 22.42631 51.88300 35767 ft 464 kts 273°
2026-05-05 22:17 22.43194 51.81363 35763 ft 464 kts 273°
2026-05-05 22:17 22.43753 51.74408 35764 ft 464 kts 273°
2026-05-05 22:18 22.44309 51.67450 35768 ft 465 kts 273°
2026-05-05 22:18 22.44770 51.61660 35771 ft 465 kts 273°
2026-05-05 22:19 22.45416 51.53508 35767 ft 466 kts 273°
2026-05-05 22:19 22.45872 51.47709 35769 ft 466 kts 273°
2026-05-05 22:20 22.46419 51.40729 35766 ft 466 kts 273°
2026-05-05 22:20 22.46963 51.33751 35762 ft 466 kts 273°
2026-05-05 22:21 22.47504 51.26783 35770 ft 465 kts 273°
2026-05-05 22:21 22.48126 51.18699 35768 ft 464 kts 273°
2026-05-05 22:22 22.48573 51.12874 35768 ft 463 kts 273°
2026-05-05 22:22 22.49101 51.05937 35766 ft 463 kts 272°
2026-05-05 22:23 22.49626 50.99005 35768 ft 462 kts 272°
2026-05-05 22:23 22.50143 50.92135 35771 ft 462 kts 272°
2026-05-05 22:24 22.50661 50.85218 35767 ft 461 kts 272°
2026-05-05 22:24 22.51176 50.78305 35768 ft 461 kts 272°
2026-05-05 22:25 22.51688 50.71392 35769 ft 461 kts 272°
2026-05-05 22:25 22.52197 50.64476 35771 ft 461 kts 272°
2026-05-05 22:26 22.52703 50.57557 35767 ft 462 kts 272°
2026-05-05 22:26 22.53206 50.50635 35765 ft 462 kts 272°
2026-05-05 22:27 22.53707 50.43713 35765 ft 462 kts 272°
2026-05-05 22:27 22.54205 50.36789 35763 ft 462 kts 272°
2026-05-05 22:28 22.54700 50.29857 35762 ft 462 kts 272°
2026-05-05 22:28 22.55191 50.22930 35764 ft 462 kts 272°
2026-05-05 22:29 22.55680 50.16008 35762 ft 462 kts 272°
2026-05-05 22:29 22.56166 50.09079 35760 ft 462 kts 272°
2026-05-05 22:30 22.56649 50.02151 35757 ft 462 kts 272°
2026-05-05 22:30 22.57128 49.95236 35760 ft 461 kts 272°
2026-05-05 22:31 22.57605 49.88306 35762 ft 461 kts 272°
2026-05-05 22:31 22.58078 49.81383 35767 ft 461 kts 272°
2026-05-05 22:32 22.58548 49.74468 35765 ft 461 kts 272°
2026-05-05 22:32 22.59013 49.67590 35765 ft 461 kts 272°
2026-05-05 22:33 22.59477 49.60668 35768 ft 461 kts 272°
2026-05-05 22:33 22.59938 49.53754 35768 ft 461 kts 272°
2026-05-05 22:34 22.60397 49.46832 35767 ft 461 kts 272°
2026-05-05 22:34 22.60852 49.39915 35768 ft 461 kts 272°
2026-05-05 22:35 22.61304 49.33001 35772 ft 460 kts 272°
2026-05-05 22:35 22.61753 49.26092 35770 ft 460 kts 272°
2026-05-05 22:36 22.62198 49.19188 35768 ft 460 kts 272°
2026-05-05 22:36 22.62640 49.12285 35768 ft 459 kts 272°
2026-05-05 22:37 22.63079 49.05389 35768 ft 459 kts 272°
2026-05-05 22:37 22.63515 48.98504 35770 ft 458 kts 272°
2026-05-05 22:38 22.63946 48.91624 35770 ft 458 kts 272°
2026-05-05 22:38 22.64375 48.84747 35771 ft 458 kts 271°
2026-05-05 22:39 22.64801 48.77870 35770 ft 458 kts 271°
2026-05-05 22:39 22.65221 48.71044 35780 ft 458 kts 271°
2026-05-05 22:40 22.65643 48.64125 35776 ft 458 kts 271°
2026-05-05 22:40 22.66057 48.57296 35778 ft 458 kts 271°
2026-05-05 22:41 22.66471 48.50420 35777 ft 458 kts 271°
2026-05-05 22:41 22.66886 48.43483 35777 ft 458 kts 271°
2026-05-05 22:42 22.67292 48.36641 35778 ft 459 kts 271°
2026-05-05 22:42 22.67701 48.29703 35777 ft 459 kts 271°
2026-05-05 22:43 22.68104 48.22797 35782 ft 459 kts 271°
2026-05-05 22:43 22.68505 48.15894 35783 ft 460 kts 271°
2026-05-05 22:44 22.68901 48.09032 35777 ft 460 kts 271°
2026-05-05 22:44 22.69308 48.02123 35782 ft 460 kts 272°
2026-05-05 22:45 22.69869 47.95219 35786 ft 460 kts 273°
2026-05-05 22:45 22.70477 47.88315 35786 ft 460 kts 273°
2026-05-05 22:46 22.71065 47.81412 35787 ft 460 kts 272°
2026-05-05 22:46 22.71636 47.74505 35787 ft 460 kts 272°
2026-05-05 22:47 22.72201 47.67599 35793 ft 460 kts 272°
2026-05-05 22:47 22.72763 47.60694 35797 ft 460 kts 272°
2026-05-05 22:48 22.73323 47.53791 35800 ft 460 kts 272°
2026-05-05 22:48 22.73879 47.46888 35801 ft 460 kts 272°
2026-05-05 22:49 22.74433 47.39990 35806 ft 459 kts 272°
2026-05-05 22:49 22.74982 47.33103 35811 ft 459 kts 272°
2026-05-05 22:50 22.75528 47.26222 35815 ft 458 kts 272°
2026-05-05 22:50 22.76068 47.19389 35819 ft 458 kts 272°
2026-05-05 22:51 22.76612 47.12528 35818 ft 457 kts 272°
2026-05-05 22:51 22.77162 47.05671 35831 ft 456 kts 272°
2026-05-05 22:52 22.77707 46.98834 35834 ft 456 kts 272°
2026-05-05 22:52 22.78248 46.91998 35834 ft 455 kts 272°
2026-05-05 22:53 22.78785 46.85172 35844 ft 455 kts 272°
2026-05-05 22:53 22.79318 46.78347 35839 ft 454 kts 272°
2026-05-05 22:54 22.79848 46.71531 35852 ft 453 kts 272°
2026-05-05 22:54 22.80375 46.64724 35845 ft 453 kts 272°
2026-05-05 22:55 22.80897 46.57932 35864 ft 453 kts 272°
2026-05-05 22:55 22.81417 46.51136 35867 ft 452 kts 272°
2026-05-05 22:56 22.81934 46.44340 35860 ft 452 kts 272°
2026-05-05 22:56 22.82447 46.37555 35864 ft 452 kts 271°
2026-05-05 22:57 22.82950 46.30767 35866 ft 452 kts 271°
2026-05-05 22:57 22.83444 46.24031 35861 ft 451 kts 271°
2026-05-05 22:58 22.84422 46.17291 35864 ft 454 kts 279°
2026-05-05 22:58 22.85860 46.10627 35864 ft 454 kts 279°
2026-05-05 22:59 22.87293 46.03912 35855 ft 454 kts 279°
2026-05-05 22:59 22.88683 45.97280 35852 ft 454 kts 279°
2026-05-05 23:00 22.90764 45.87262 35847 ft 454 kts 279°
2026-05-05 23:00 22.92148 45.80580 35843 ft 454 kts 278°
2026-05-05 23:01 22.93529 45.73898 35842 ft 454 kts 278°
2026-05-05 23:01 22.94907 45.67221 35848 ft 453 kts 278°
2026-05-05 23:02 22.96280 45.60551 35854 ft 453 kts 278°
2026-05-05 23:02 22.97651 45.53873 35849 ft 453 kts 278°
2026-05-05 23:03 22.99020 45.47194 35853 ft 453 kts 278°
2026-05-05 23:03 23.00385 45.40515 35851 ft 453 kts 278°
2026-05-05 23:04 23.01747 45.33836 35860 ft 453 kts 278°
2026-05-05 23:04 23.03106 45.27160 35861 ft 453 kts 278°
2026-05-05 23:05 23.04462 45.20486 35861 ft 453 kts 278°
2026-05-05 23:05 23.05814 45.13811 35864 ft 452 kts 278°
2026-05-05 23:06 23.07162 45.07146 35867 ft 452 kts 278°
2026-05-05 23:06 23.08506 45.00478 35872 ft 452 kts 278°
2026-05-05 23:07 23.09622 44.94934 35884 ft 452 kts 278°
2026-05-05 23:07 23.10961 44.88270 35881 ft 452 kts 278°
2026-05-05 23:08 23.12296 44.81608 35892 ft 451 kts 278°
2026-05-05 23:08 23.13842 44.73867 35891 ft 451 kts 278°
2026-05-05 23:09 23.15168 44.67220 35888 ft 451 kts 278°
2026-05-05 23:09 23.16280 44.61630 35896 ft 451 kts 277°
2026-05-05 23:10 23.17603 44.54970 35897 ft 451 kts 277°
2026-05-05 23:10 23.18920 44.48319 35901 ft 450 kts 277°
2026-05-05 23:11 23.20234 44.41671 35898 ft 450 kts 277°
2026-05-05 23:11 23.21543 44.35031 35903 ft 449 kts 277°
2026-05-05 23:12 23.22843 44.28422 35899 ft 449 kts 277°
2026-05-05 23:12 23.24147 44.21779 35906 ft 449 kts 277°
2026-05-05 23:13 23.25446 44.15147 35911 ft 449 kts 277°
2026-05-05 23:13 23.26742 44.08509 35914 ft 448 kts 277°
2026-05-05 23:14 23.28034 44.01882 35918 ft 448 kts 277°
2026-05-05 23:14 23.29322 43.95255 35925 ft 448 kts 277°
2026-05-05 23:15 23.30607 43.88634 35933 ft 447 kts 277°
2026-05-05 23:15 23.31888 43.82009 35938 ft 447 kts 277°
2026-05-05 23:16 23.33167 43.75387 35938 ft 447 kts 277°
2026-05-05 23:16 23.34441 43.68770 35947 ft 447 kts 277°
2026-05-05 23:17 23.35712 43.62156 35953 ft 446 kts 277°
2026-05-05 23:17 23.36979 43.55545 35959 ft 446 kts 277°
2026-05-05 23:18 23.38244 43.48931 35964 ft 446 kts 277°
2026-05-05 23:18 23.39504 43.42326 35967 ft 446 kts 276°
2026-05-05 23:19 23.40760 43.35727 35978 ft 445 kts 276°
2026-05-05 23:19 23.42013 43.29126 35982 ft 445 kts 276°
2026-05-05 23:20 23.43262 43.22532 35988 ft 445 kts 276°
2026-05-05 23:20 23.44509 43.15929 35990 ft 445 kts 276°
2026-05-05 23:21 23.45753 43.09332 35999 ft 445 kts 276°
2026-05-05 23:21 23.46994 43.02731 36005 ft 445 kts 276°
2026-05-05 23:22 23.48233 42.96121 36008 ft 445 kts 276°
2026-05-05 23:22 23.49469 42.89515 36003 ft 445 kts 276°
2026-05-05 23:23 23.50703 42.82905 36003 ft 445 kts 276°
2026-05-05 23:23 23.51935 42.76338 36007 ft 446 kts 277°
2026-05-05 23:24 23.53702 42.69808 36007 ft 451 kts 282°
2026-05-05 23:24 23.55651 42.63323 36003 ft 450 kts 282°
2026-05-05 23:25 23.57581 42.56831 35997 ft 450 kts 282°
2026-05-05 23:25 23.59493 42.50335 36004 ft 450 kts 282°
2026-05-05 23:26 23.61397 42.43845 36006 ft 449 kts 282°
2026-05-05 23:26 23.63296 42.37363 36002 ft 448 kts 282°
2026-05-05 23:27 23.65190 42.30891 36005 ft 448 kts 281°
2026-05-05 23:27 23.67070 42.24424 36004 ft 447 kts 281°
2026-05-05 23:28 23.68931 42.17958 36005 ft 446 kts 281°
2026-05-05 23:28 23.70784 42.11505 36002 ft 446 kts 281°
2026-05-05 23:29 23.72635 42.05061 35995 ft 445 kts 281°
2026-05-05 23:29 23.74483 41.98617 35988 ft 444 kts 281°
2026-05-05 23:30 23.76347 41.92192 35988 ft 444 kts 281°
2026-05-05 23:30 23.78215 41.85778 35995 ft 443 kts 281°
2026-05-05 23:31 23.80076 41.79362 35992 ft 443 kts 281°
2026-05-05 23:31 23.81928 41.72945 35991 ft 443 kts 281°
2026-05-05 23:32 23.83757 41.66574 35990 ft 442 kts 281°
2026-05-05 23:32 23.85594 41.60166 35995 ft 442 kts 281°
2026-05-05 23:33 23.87427 41.53763 35986 ft 442 kts 281°
2026-05-05 23:33 23.89254 41.47359 35992 ft 441 kts 281°
2026-05-05 23:34 23.91079 41.40951 35993 ft 441 kts 280°
2026-05-05 23:34 23.92902 41.34544 35988 ft 441 kts 280°
2026-05-05 23:35 23.94718 41.28142 35989 ft 441 kts 280°
2026-05-05 23:35 23.96531 41.21741 35986 ft 441 kts 280°
2026-05-05 23:36 23.98339 41.15347 35986 ft 440 kts 280°
2026-05-05 23:36 24.00144 41.08948 35980 ft 440 kts 280°
2026-05-05 23:37 24.01944 41.02559 35984 ft 440 kts 280°
2026-05-05 23:37 24.03741 40.96169 35983 ft 439 kts 280°
2026-05-05 23:38 24.05534 40.89781 35978 ft 439 kts 280°
2026-05-05 23:38 24.07320 40.83399 35980 ft 439 kts 280°
2026-05-05 23:39 24.09104 40.77013 35977 ft 438 kts 280°
2026-05-05 23:39 24.10883 40.70634 35977 ft 438 kts 279°
2026-05-05 23:40 24.12658 40.64259 35974 ft 437 kts 279°
2026-05-05 23:40 24.14429 40.57889 35975 ft 437 kts 279°
2026-05-05 23:41 24.16323 40.51553 35973 ft 441 kts 284°
2026-05-05 23:41 24.19019 40.45496 35977 ft 448 kts 289°
2026-05-05 23:42 24.21940 40.39474 35970 ft 447 kts 289°
2026-05-05 23:42 24.24841 40.33443 35966 ft 447 kts 289°
2026-05-05 23:43 24.27720 40.27419 35975 ft 446 kts 289°
2026-05-05 23:43 24.30593 40.21390 35964 ft 446 kts 289°
2026-05-05 23:44 24.33460 40.15366 35962 ft 445 kts 289°
2026-05-05 23:44 24.36316 40.09359 35965 ft 445 kts 289°
2026-05-05 23:45 24.39174 40.03341 35966 ft 444 kts 289°
2026-05-05 23:45 24.42021 39.97337 35962 ft 444 kts 289°
2026-05-05 23:46 24.44866 39.91330 35966 ft 443 kts 289°
2026-05-05 23:46 24.47706 39.85322 35968 ft 443 kts 289°
2026-05-05 23:47 24.50540 39.79323 35970 ft 443 kts 289°
2026-05-05 23:47 24.53572 39.73398 35956 ft 453 kts 297°
2026-05-05 23:48 24.57798 39.68132 35977 ft 467 kts 307°
2026-05-05 23:48 24.63017 39.63679 35965 ft 479 kts 314°
2026-05-05 23:49 24.68460 39.59451 35969 ft 480 kts 314°
2026-05-05 23:49 24.73862 39.55212 35969 ft 480 kts 314°
2026-05-05 23:50 24.79263 39.50909 35969 ft 479 kts 314°
2026-05-05 23:50 24.84642 39.46601 35978 ft 478 kts 314°
2026-05-05 23:51 24.90019 39.42288 35968 ft 478 kts 314°
2026-05-05 23:51 24.95401 39.37970 35973 ft 478 kts 313°
2026-05-05 23:52 25.00768 39.33661 35974 ft 477 kts 313°
2026-05-05 23:52 25.06130 39.29351 35975 ft 477 kts 313°
2026-05-05 23:53 25.11491 39.25035 35971 ft 477 kts 313°
2026-05-05 23:53 25.16844 39.20723 35978 ft 476 kts 313°
2026-05-05 23:54 25.21769 39.16016 35982 ft 460 kts 303°
2026-05-05 23:54 25.25702 39.10585 35974 ft 447 kts 294°
2026-05-05 23:55 25.29065 39.04815 35974 ft 446 kts 293°
2026-05-05 23:55 25.31841 39.00002 35966 ft 447 kts 293°
2026-05-05 23:56 25.35201 38.94212 35967 ft 448 kts 293°
2026-05-05 23:56 25.38577 38.88420 35966 ft 448 kts 293°
2026-05-05 23:57 25.41960 38.82622 35956 ft 449 kts 293°
2026-05-05 23:57 25.45346 38.76811 35953 ft 449 kts 294°
2026-05-05 23:58 25.48730 38.70997 35949 ft 450 kts 294°
2026-05-05 23:58 25.52116 38.65170 35935 ft 450 kts 294°
2026-05-05 23:59 25.55501 38.59338 35936 ft 450 kts 294°
2026-05-05 23:59 25.58882 38.53507 35933 ft 450 kts 294°
2026-05-06 00:00 25.62257 38.47679 35933 ft 450 kts 294°
2026-05-06 00:00 25.65632 38.41841 35929 ft 449 kts 294°
2026-05-06 00:01 25.69001 38.36008 35924 ft 449 kts 293°
2026-05-06 00:01 25.72366 38.30174 35928 ft 449 kts 293°
2026-05-06 00:02 25.75705 38.24377 35935 ft 449 kts 293°
2026-05-06 00:02 25.79064 38.18538 35920 ft 448 kts 293°
2026-05-06 00:03 25.82435 38.12672 35918 ft 448 kts 293°
2026-05-06 00:03 25.85755 38.06889 35931 ft 447 kts 293°
2026-05-06 00:04 25.89097 38.01055 35938 ft 448 kts 293°
2026-05-06 00:04 25.92435 37.95224 35949 ft 447 kts 293°
2026-05-06 00:05 25.97439 37.86465 35964 ft 447 kts 292°
2026-05-06 00:06 26.00005 37.80337 35968 ft 432 kts 281°
2026-05-06 00:06 26.01543 37.73968 35964 ft 422 kts 272°
2026-05-06 00:07 26.02397 37.67515 35957 ft 422 kts 272°
2026-05-06 00:07 26.03240 37.61069 35966 ft 421 kts 272°
2026-05-06 00:08 26.04113 37.54619 35964 ft 422 kts 272°
2026-05-06 00:08 26.04987 37.48172 35956 ft 422 kts 272°
2026-05-06 00:09 26.05849 37.41710 35956 ft 423 kts 272°
2026-05-06 00:09 26.06708 37.35225 35955 ft 424 kts 272°
2026-05-06 00:10 26.07568 37.28722 35949 ft 425 kts 272°
2026-05-06 00:10 26.08423 37.22227 35947 ft 424 kts 272°
2026-05-06 00:11 26.09278 37.15739 35950 ft 424 kts 272°
2026-05-06 00:11 26.10129 37.09254 35938 ft 423 kts 272°
2026-05-06 00:12 26.10974 37.02769 35936 ft 423 kts 272°
2026-05-06 00:12 26.11817 36.96283 35932 ft 424 kts 272°
2026-05-06 00:13 26.12657 36.89799 35936 ft 423 kts 272°
2026-05-06 00:13 26.13495 36.83313 35933 ft 424 kts 272°
2026-05-06 00:14 26.14329 36.76828 35936 ft 424 kts 272°
2026-05-06 00:14 26.15162 36.70332 35933 ft 424 kts 272°
2026-05-06 00:15 26.15991 36.63841 35940 ft 424 kts 272°
2026-05-06 00:15 26.16817 36.57350 35934 ft 424 kts 272°
2026-05-06 00:16 26.18193 36.50942 35949 ft 435 kts 285°
2026-05-06 00:16 26.21191 36.44977 35939 ft 451 kts 298°
2026-05-06 00:17 26.25528 36.39769 35942 ft 461 kts 305°
2026-05-06 00:17 26.30059 36.34711 35941 ft 461 kts 305°
2026-05-06 00:18 26.34551 36.29626 35937 ft 460 kts 304°
2026-05-06 00:18 26.38970 36.24544 35936 ft 459 kts 304°
2026-05-06 00:19 26.43392 36.19430 35935 ft 458 kts 304°
2026-05-06 00:19 26.47808 36.14316 35929 ft 457 kts 304°
2026-05-06 00:20 26.52220 36.09205 35930 ft 457 kts 304°
2026-05-06 00:20 26.56628 36.04093 35935 ft 456 kts 304°
2026-05-06 00:21 26.61030 35.98981 35936 ft 456 kts 304°
2026-05-06 00:21 26.65427 35.93869 35935 ft 456 kts 304°
2026-05-06 00:22 26.69818 35.88758 35938 ft 456 kts 304°
2026-05-06 00:22 26.74213 35.83637 35939 ft 456 kts 304°
2026-05-06 00:23 26.78608 35.78510 35936 ft 456 kts 304°
2026-05-06 00:23 26.83005 35.73377 35937 ft 457 kts 304°
2026-05-06 00:24 26.87397 35.68242 35944 ft 457 kts 304°
2026-05-06 00:24 26.91791 35.63099 35932 ft 457 kts 304°
2026-05-06 00:25 26.96185 35.57948 35943 ft 457 kts 304°
2026-05-06 00:25 27.00573 35.52798 35943 ft 457 kts 304°
2026-05-06 00:26 27.04967 35.47635 35945 ft 457 kts 304°
2026-05-06 00:26 27.09330 35.42502 35947 ft 458 kts 304°
2026-05-06 00:27 27.13723 35.37327 35949 ft 458 kts 304°
2026-05-06 00:27 27.18116 35.32147 35951 ft 458 kts 304°
2026-05-06 00:28 27.22500 35.26970 35951 ft 458 kts 304°